{"data":{"norad_id":62019,"intl_designator":"2024-213M","name":"STARLINK-11404 [DTC]","alt_names":[],"object_type":"PAYLOAD","status":"ACTIVE","operator":null,"country":"US","launch_date":"2024-11-18","launch_site_code":"AFWTR","launch_vehicle":null,"mission":null,"orbit_class":"UNKNOWN","rcs_meters":null,"size_class":null,"mass_kg":null,"dimensions":null,"purposes":["comms"],"wikipedia_slug":null,"has_3d_model":false,"image_url":null,"decayed_at":null,"tle_current":{"epoch":"2026-09-21T20:59:15.720000Z","epoch_age_seconds":66833,"freshness":"FRESH","line1":"1 62019U 24213M   26264.87448750  .00185303  00000+0  14928-2 0  9998","line2":"2 62019  53.1583 154.4777 0001299 150.2740 209.8352 15.69833132105725","mean_motion":15.69833132,"eccentricity":0.0001299,"inclination_deg":53.1583,"raan_deg":154.4777,"arg_perigee_deg":150.274,"mean_anomaly_deg":209.8352,"bstar":0.0014928,"rev_number":10572,"period_min":91.729494724411,"perigee_km":358.49921406668,"apogee_km":360.24961953276,"semimajor_km":6737.5114167997,"source":"CELESTRAK","updated_at":"2026-09-22T09:00:49.484378Z"}}}